Retour au catalogue

ONEWEB-0422

ActifCommunicationsPO
NORAD 51626·PAYLOAD·🇬🇧 United Kingdom

Lancé Feb 10, 2022 depuis Guiana Space Centre

Loading…

Prochains Passages (prochaines 24 heures)

TLE

FraisSource: CelesTrak SupGP

Époque: Sep 14, 2026, 20:32 UTC

1 51626C 22012E   26257.85573333 -.00002863  00000+0 -73830-2 0  2576
2 51626  87.9206 348.0541 0002091  85.3371  26.9396 13.17652645    14

Suivez ONEWEB-0422 en temps réel avec AllMySat

Download on the App Store